Total_Precipitation_Accumulation
0.02 0.06 0.13 0.21 0.19 0.14 0.10 0.07 0.09 0.10 0.18 0.31 0.51 0.64 0.70 0.69 0.67 0.62 0.55 0.60 0.65 0.74 0.80 0.87 0.94 0.92 0.92 1.01 1.04 1.15 1.43 1.53 1.60 1.56 1.58 1.69 1.76 1.72 1.76 1.75 1.71 1.85 1.91 1.90
0.04 0.06 0.08 0.12 0.16 0.13 0.09 0.09 0.09 0.11 0.21 0.35 0.55 0.63 0.71 0.68 0.64 0.62 0.68 0.70 0.77 0.81 0.86 0.89 0.93 1.03 1.10 1.12 1.14 1.33 1.73 1.95 2.03 2.01 2.02 2.04 2.07 2.07 2.09 2.05 2.17 2.21 2.13 2.08
0.06 0.08 0.10 0.15 0.14 0.13 0.11 0.11 0.12 0.18 0.30 0.40 0.54 0.70 0.80 0.73 0.61 0.58 0.61 0.66 0.73 0.86 0.96 0.95 0.94 1.00 1.11 1.23 1.31 1.45 1.71 1.88 1.96 2.02 2.08 2.19 2.24 2.29 2.29 2.31 2.34 2.36 2.40 2.33
0.11 0.13 0.20 0.19 0.20 0.21 0.18 0.20 0.24 0.36 0.48 0.52 0.56 0.65 0.69 0.60 0.58 0.62 0.64 0.74 0.84 0.86 0.97 1.05 1.10 1.18 1.35 1.54 1.71 1.78 1.90 2.09 2.19 2.16 2.15 2.20 2.21 2.15 2.16 2.28 2.31 2.26 2.18 2.08
0.23 0.22 0.22 0.24 0.29 0.29 0.29 0.39 0.47 0.60 0.73 0.79 0.77 0.73 0.82 0.75 0.70 0.70 0.79 0.88 1.05 1.19 1.18 1.24 1.37 1.49 1.58 1.79 1.96 2.02 2.03 2.20 2.33 2.42 2.49 2.39 2.27 2.28 2.30 2.31 2.15 2.03 1.94 1.92
0.35 0.38 0.40 0.35 0.40 0.38 0.42 0.73 0.72 0.81 0.92 0.99 1.04 1.25 1.24 0.98 0.94 0.84 0.82 0.93 1.04 1.25 1.39 1.41 1.57 1.68 1.73 1.81 1.93 2.03 2.01 2.08 2.22 2.31 2.48 2.60 2.54 2.53 2.47 2.36 2.22 2.14 2.06 2.05
0.45 0.50 0.49 0.45 0.43 0.47 0.84 1.18 1.04 1.00 1.07 1.17 1.27 1.29 1.19 1.03 1.06 1.07 0.96 0.93 0.98 1.07 1.23 1.33 1.41 1.50 1.65 1.74 1.75 1.84 1.86 1.84 1.99 2.19 2.36 2.48 2.62 2.64 2.64 2.54 2.41 2.21 2.08 2.03
0.60 0.79 0.90 0.62 0.53 0.79 1.09 1.10 1.25 1.17 1.18 1.27 1.32 1.33 1.30 1.24 1.19 1.13 1.05 0.98 1.01 1.08 1.16 1.24 1.38 1.57 1.72 1.76 1.76 1.76 1.81 1.90 2.02 2.21 2.30 2.30 2.35 2.42 2.53 2.51 2.45 2.37 2.12 1.91
0.94 1.11 1.02 0.75 0.78 0.87 0.91 1.09 1.19 1.22 1.23 1.27 1.29 1.26 1.18 1.08 1.08 1.14 1.07 1.06 1.02 1.08 1.21 1.39 1.56 1.75 1.93 1.93 1.95 1.96 1.98 2.04 2.10 2.20 2.27 2.30 2.28 2.28 2.27 2.22 2.12 2.05 1.94 1.86
1.27 1.42 1.20 1.01 0.94 0.99 1.06 1.18 1.28 1.38 1.46 1.35 1.21 1.13 1.12 1.09 1.06 1.14 1.15 1.09 1.07 1.08 1.16 1.34 1.47 1.56 1.75 1.86 1.89 2.02 1.98 1.91 1.86 1.87 1.92 1.97 2.03 2.05 2.05 2.00 1.94 1.88 1.81 1.80
1.62 1.85 1.71 1.48 1.24 1.17 1.25 1.47 1.66 1.66 1.58 1.48 1.38 1.33 1.38 1.34 1.21 1.13 1.12 1.14 1.14 1.17 1.22 1.27 1.32 1.36 1.46 1.59 1.72 1.92 2.03 1.99 1.97 1.94 1.89 1.90 1.96 2.03 1.91 1.85 1.86 1.77 1.67 1.74
1.89 1.87 1.96 1.85 1.49 1.40 1.43 1.58 1.69 1.65 1.67 1.69 1.63 1.53 1.39 1.32 1.25 1.19 1.12 1.14 1.21 1.27 1.30 1.29 1.29 1.37 1.48 1.61 1.80 2.01 2.04 1.95 1.96 2.02 2.03 2.02 2.00 2.05 2.09 1.90 1.84 1.71 1.64 1.60
1.60 1.68 1.78 1.71 1.60 1.58 1.63 1.68 1.74 1.72 1.65 1.68 1.69 1.56 1.40 1.31 1.27 1.23 1.25 1.25 1.33 1.37 1.33 1.27 1.26 1.37 1.50 1.67 1.87 2.03 2.04 2.02 2.04 2.05 2.09 2.07 1.95 1.87 1.89 1.81 1.64 1.53 1.48 1.40
1.65 1.72 1.88 1.89 1.81 1.74 1.89 1.93 1.94 1.89 1.80 1.71 1.65 1.53 1.44 1.48 1.47 1.39 1.37 1.42 1.38 1.31 1.24 1.23 1.26 1.26 1.34 1.51 1.76 1.98 2.00 2.06 2.10 2.08 2.06 2.00 1.90 1.82 1.75 1.72 1.60 1.44 1.35 1.26
1.62 1.61 1.76 1.76 1.80 1.79 1.92 1.97 1.96 1.97 1.91 1.77 1.59 1.46 1.34 1.37 1.56 1.61 1.60 1.62 1.49 1.34 1.26 1.21 1.16 1.12 1.15 1.26 1.42 1.67 1.80 1.75 1.73 1.76 1.76 1.70 1.61 1.55 1.48 1.42 1.41 1.41 1.27 1.10
1.41 1.57 1.65 1.73 1.71 1.62 1.66 1.70 1.76 1.78 1.74 1.64 1.51 1.43 1.32 1.27 1.35 1.45 1.57 1.58 1.56 1.45 1.31 1.22 1.23 1.20 1.13 1.21 1.29 1.35 1.39 1.48 1.41 1.36 1.36 1.36 1.32 1.28 1.22 1.21 1.24 1.32 1.25 1.05
1.46 1.63 1.64 1.66 1.66 1.60 1.51 1.55 1.62 1.63 1.61 1.56 1.45 1.33 1.21 1.22 1.34 1.41 1.44 1.36 1.25 1.21 1.16 1.10 1.11 1.12 1.10 1.19 1.21 1.17 1.09 1.05 1.07 1.00 1.03 1.13 1.17 1.12 1.07 1.10 1.14 1.20 1.12 0.95
1.30 1.41 1.45 1.47 1.39 1.43 1.44 1.50 1.52 1.42 1.44 1.40 1.28 1.19 1.15 1.25 1.40 1.44 1.32 1.17 1.10 1.08 1.05 0.96 0.87 0.83 0.88 0.90 0.89 0.84 0.79 0.78 0.75 0.73 0.82 0.89 0.91 0.96 1.03 1.06 1.08 1.10 1.01 0.88
1.22 1.19 1.18 1.15 1.05 1.11 1.20 1.24 1.33 1.32 1.30 1.21 1.12 1.15 1.18 1.25 1.31 1.28 1.12 1.04 1.02 0.97 0.87 0.78 0.79 0.69 0.67 0.65 0.69 0.67 0.68 0.71 0.71 0.71 0.78 0.79 0.81 0.89 1.03 1.10 1.10 1.07 1.00 0.95
1.06 0.97 0.92 0.91 0.87 0.89 1.00 1.04 1.01 1.05 1.06 1.06 1.13 1.18 1.14 1.14 1.09 1.07 1.01 0.99 0.92 0.79 0.70 0.67 0.65 0.65 0.64 0.61 0.64 0.62 0.66 0.70 0.74 0.72 0.70 0.73 0.79 0.84 0.89 0.92 0.96 0.97 0.95 0.92
0.93 0.85 0.82 0.86 0.86 0.81 0.86 0.86 0.83 0.84 0.89 0.93 1.02 1.05 1.03 1.02 0.97 0.99 1.08 1.06 0.89 0.73 0.66 0.69 0.61 0.58 0.57 0.61 0.60 0.59 0.65 0.71 0.76 0.81 0.79 0.79 0.80 0.81 0.83 0.82 0.82 0.83 0.87 0.92
1.05 0.92 0.84 0.83 0.85 0.84 0.82 0.78 0.73 0.69 0.73 0.81 0.81 0.85 0.96 1.02 0.97 0.98 1.02 1.05 0.95 0.95 0.74 0.62 0.56 0.55 0.58 0.59 0.60 0.67 0.68 0.72 0.79 0.86 0.87 0.86 0.87 0.89 0.89 0.88 0.89 0.85 0.88 0.92
1.07 1.01 0.95 0.93 0.94 0.95 0.84 0.77 0.72 0.72 0.73 0.75 0.76 0.83 0.92 1.01 1.01 1.01 0.99 0.91 0.86 0.95 0.85 0.74 0.73 0.69 0.67 0.63 0.71 0.81 0.80 0.79 0.79 0.81 0.84 0.86 0.90 0.93 0.95 0.94 0.99 0.98 0.96 1.00
1.13 1.02 0.98 0.93 0.88 0.89 0.87 0.81 0.75 0.73 0.73 0.74 0.75 0.80 0.92 0.99 0.98 0.91 0.91 0.90 0.85 0.84 0.82 0.87 0.88 0.86 0.82 0.74 0.79 0.84 0.86 0.89 0.91 0.87 0.82 0.82 0.85 0.87 0.94 0.97 0.99 0.99 0.99 1.00
1.24 1.11 1.00 0.91 0.87 0.84 0.84 0.83 0.78 0.71 0.68 0.73 0.71 0.73 0.80 0.90 0.97 0.92 0.85 0.79 0.75 0.73 0.77 0.83 0.85 0.92 0.89 0.88 0.87 0.86 0.88 0.97 1.03 0.98 0.92 0.91 0.93 0.94 0.96 0.95 0.91 0.90 0.92 0.96
1.30 1.18 1.05 0.94 0.85 0.81 0.82 0.85 0.86 0.83 0.78 0.78 0.75 0.77 0.81 0.81 0.82 0.86 0.91 0.86 0.79 0.76 0.80 0.82 0.81 0.87 0.87 0.91 0.96 0.97 0.96 1.00 1.01 0.99 0.99 1.01 1.05 1.05 0.96 0.87 0.81 0.81 0.81 0.82
1.17 1.09 1.00 0.94 0.85 0.78 0.78 0.83 0.86 0.87 0.85 0.87 0.84 0.85 0.93 0.93 0.90 0.89 0.85 0.81 0.76 0.75 0.77 0.76 0.75 0.76 0.74 0.73 0.75 0.77 0.80 0.84 0.88 0.93 0.98 1.01 1.00 0.97 0.90 0.84 0.81 0.78 0.77 0.75